Location: Newark
(43.0000°N, 1.6781°W)
Time: 13:17:27
(UTC+00:00)

XW-2B - Visible Passes

Search period start: 08 December 2022 00:00
Search period end: 18 December 2022 00:00
Orbit: 490 x 509 km, 97.5° (Epoch: 08 December)

Date Brightness Start Highest point End Pass type
(mag) Time Alt. Az. Time Alt. Az. Time Alt. Az.
08 Dec ? 05:51:42 10° NNE 05:55:02 33° E 05:58:21 10° SSE visible
08 Dec ? 18:04:08 10° SSW 18:07:24 30° W 18:10:41 10° NNW visible
09 Dec ? 05:32:34 10° NE 05:35:16 19° E 05:37:58 10° SE visible
09 Dec ? 17:44:06 10° S 17:47:41 55° W 17:51:17 10° NNW visible
10 Dec ? 05:14:11 10° ENE 05:15:26 11° E 05:16:41 10° ESE visible
10 Dec ? 06:45:56 10° N 06:49:26 46° WNW 06:52:55 10° SSW visible
10 Dec ? 17:24:21 10° SSE 17:28:00 81° ENE 17:31:39 10° N visible
11 Dec ? 06:26:08 10° N 06:29:48 85° W 06:33:26 10° SSW visible
11 Dec ? 17:04:52 10° SE 17:08:21 44° ENE 17:11:50 10° N visible
11 Dec ? 18:40:50 10° WSW 18:42:19 12° W 18:43:49 10° WNW visible
12 Dec ? 06:06:30 10° NNE 06:10:05 52° E 06:13:38 10° S visible
12 Dec ? 18:19:40 10° SW 18:22:27 20° W 18:25:15 10° NW visible
13 Dec ? 05:47:04 10° NE 05:50:18 29° E 05:53:30 10° SSE visible
13 Dec ? 17:59:16 10° SSW 18:02:38 35° W 18:06:00 10° NNW visible
14 Dec ? 05:27:59 10° NE 05:30:27 17° E 05:32:55 10° SE visible
14 Dec ? 17:39:14 10° S 17:42:51 64° W 17:46:28 10° NNW visible
15 Dec ? 06:41:01 10° N 06:44:35 54° WNW 06:48:09 10° SSW visible
15 Dec ? 17:19:30 10° SSE 17:23:06 69° ENE 17:26:44 10° N visible
16 Dec ? 06:21:12 10° NNE 06:24:52 82° ESE 06:28:31 10° S visible
16 Dec ? 18:35:21 10° SW 18:37:18 14° W 18:39:15 10° WNW visible
17 Dec ? 06:01:33 10° NNE 06:05:04 44° E 06:08:34 10° S visible
17 Dec ? 18:14:25 10° SSW 18:17:23 23° W 18:20:21 10° NW visible
